[[{"header":{"parameterUnit":"m.s-1","parameterCategory":1,"la1":30.2992,"la2":30.254,"lo1":-89.0895,"lo2":-89.0443,"dy":0.0025,"dx":0.0025,"nx":19,"ny":19,"refTime":"2026-05-21T03:00:00:Z","depth":0,"parameterNumber":2,"parameterNumberName":"U-component_of_WINDS"},"data":[0,0,0,-3.762,-3.7623,-3.7814,-3.7815,-3.8058,-3.806,0,0,0,0,0,0,0,0,0,0,0,-3.7562,-3.7563,-3.7619,-3.7624,-3.7814,-3.7815,-3.8058,-3.806,0,0,0,0,0,0,0,0,0,0,0,-3.7561,-3.7563,-3.7565,-3.7625,-3.7814,-3.7815,-3.8057,-3.7914,0,0,0,0,0,0,0,0,0,0,-3.7729,-3.7674,-3.7562,-3.7565,-3.7626,-3.7814,-3.7815,-3.7907,-3.7923,-3.7971,0,-3.8013,0,-3.804,-3.8076,-3.8077,0,0,0,-3.7625,-3.7661,-3.7713,-3.7565,-3.7627,-3.7814,-3.7729,-3.7916,-3.7934,-3.7992,-3.8016,-3.8025,-3.8044,-3.8078,-3.8079,-3.835,-3.8352,0,0,-3.7615,-3.7595,-3.7701,-3.7725,-3.7694,-3.7723,-3.7735,-3.7927,-3.7952,-3.8017,-3.8031,-3.8048,-3.808,-3.8081,-3.8349,-3.8351,0,0,0,-3.7584,-3.7588,-3.7636,-3.7715,-3.7749,-3.7728,-3.7742,-3.7944,-3.7961,-3.8034,-3.8051,-3.8081,-3.8084,-3.8348,-3.835,-3.8389,0,0,0,-3.7577,-3.757,-3.7631,-3.7621,-3.7745,-3.7849,-3.7754,-3.7948,-3.797,-3.805,-3.8081,-3.8086,-3.8347,-3.8349,-3.8385,-3.8411,0,0,0,-3.755,-3.7567,-3.7594,-3.762,-3.7701,-3.7846,-3.7874,-3.7953,-3.7981,-3.8077,-3.8087,-3.8346,-3.8349,-3.8382,-3.8405,-3.8476,0,0,0,-3.7515,-3.7627,-3.7594,-3.7726,-3.7699,-3.7869,-3.7873,-3.8001,-3.8089,-3.8082,-3.8347,-3.835,-3.8381,-3.8402,-3.8472,-3.8531,-3.8554,0,0,-3.7645,-3.7642,-3.7721,-3.7697,-3.7867,-3.7841,-3.8018,-3.8118,-3.8145,-3.8281,-3.8288,-3.8387,-3.8405,-3.8475,-3.8691,-3.8708,0,0,0,-3.7756,-3.7812,-3.7862,-3.7944,-3.8022,-3.8091,-3.8165,-3.8202,-3.8318,-3.8211,-3.8432,-3.8444,-3.8486,-3.8515,-3.853,-3.8567,-3.8363,-3.8362,-3.8362,-3.7912,-3.7941,-3.8074,-3.8125,-3.8205,-3.828,-3.8348,-3.8411,-3.8417,-3.8469,-3.8509,-3.8636,-3.867,-3.8681,-3.8719,-3.8544,-3.8544,-3.8544,-3.8544,-3.8105,-3.8189,-3.8195,-3.8325,-3.8355,-3.8466,-3.8543,-3.8544,-3.8651,-3.8609,-3.8647,-3.8597,-3.87,-3.8735,-3.8547,-3.8547,-3.8546,-3.8546,-3.8546,-3.821,-3.8255,-3.8297,-3.8419,-3.851,-3.8559,-3.8661,-3.8686,-3.871,-3.8748,-3.8792,-3.8791,-3.8793,-3.8767,-3.8768,-3.8768,-3.8769,-3.8769,-3.8769,-3.8301,-3.8347,-3.843,-3.8522,-3.8578,-3.8655,-3.8732,-3.8788,-3.8857,-3.8866,-3.8867,-3.8867,-3.8705,-3.8663,-3.8776,-3.8775,-3.8774,-3.8773,-3.8773,-3.8484,-3.8446,-3.8574,-3.863,-3.874,-3.8828,-3.8858,-3.897,-3.902,-3.907,-3.9063,-3.8939,-3.8938,-3.8926,-3.8891,-3.9057,-3.9057,-3.9057,-3.9057,-3.8571,-3.8572,-3.8708,-3.8796,-3.8884,-3.8924,-3.9069,-3.913,-3.9188,-3.9221,-3.9201,-3.9157,-3.9144,-3.9151,-3.9134,-3.9102,-3.9317,-3.9318,-3.9318,-3.8685,-3.8696,-3.8813,-3.8868,-3.8956,-3.9031,-3.9168,-3.9269,-3.9327,-3.9329,-3.9247,-3.9236,-3.9166,-3.9142,-3.914,-3.9114,-3.9055,0,0]},{"header":{"parameterUnit":"m.s-1","parameterCategory":1,"la1":30.2992,"la2":30.254,"lo1":-89.0895,"lo2":-89.0443,"dy":0.0025,"dx":0.0025,"nx":19,"ny":19,"refTime":"2026-05-21T03:00:00:Z","depth":0,"parameterNumber":3,"parameterNumberName":"V-component_of_WINDS"},"data":[0,0,0,3.7361,3.7361,3.7366,3.7365,3.7385,3.7385,0,0,0,0,0,0,0,0,0,0,0,3.7367,3.7367,3.7361,3.7361,3.7366,3.7365,3.7385,3.7385,0,0,0,0,0,0,0,0,0,0,0,3.7367,3.7367,3.7368,3.7361,3.7366,3.7365,3.7384,3.7376,0,0,0,0,0,0,0,0,0,0,3.737,3.7383,3.7367,3.7368,3.7361,3.7366,3.7365,3.7376,3.7377,3.7388,0,3.74,0,3.7393,3.7387,3.7387,0,0,0,3.7355,3.7382,3.7376,3.7368,3.7361,3.7366,3.7362,3.7376,3.7378,3.739,3.74,3.74,3.7393,3.7387,3.7387,3.7473,3.7473,0,0,3.7355,3.7372,3.7376,3.7378,3.7377,3.7362,3.7362,3.7377,3.7389,3.74,3.7401,3.7394,3.7387,3.7388,3.7472,3.7473,0,0,0,3.7358,3.7372,3.7366,3.7377,3.7377,3.7362,3.7362,3.7389,3.7385,3.7401,3.7394,3.7388,3.7388,3.7471,3.7472,3.7523,0,0,0,3.7358,3.7374,3.7366,3.7376,3.7377,3.7383,3.7374,3.7384,3.7385,3.7394,3.7388,3.7388,3.747,3.7472,3.752,3.7543,0,0,0,3.7364,3.7374,3.7378,3.7377,3.738,3.7382,3.7379,3.7384,3.7381,3.7387,3.7388,3.747,3.7471,3.7517,3.7539,3.7572,0,0,0,3.7376,3.7421,3.7379,3.7427,3.738,3.7413,3.7379,3.7403,3.7414,3.7388,3.747,3.7472,3.7516,3.7536,3.7569,3.7603,3.7618,0,0,3.7443,3.743,3.7457,3.7419,3.7465,3.7411,3.7464,3.7457,3.7442,3.7463,3.7465,3.7521,3.7539,3.7571,3.7698,3.7711,0,0,0,3.7484,3.7504,3.7513,3.7524,3.7521,3.7521,3.7505,3.7503,3.752,3.7457,3.754,3.7551,3.7569,3.7584,3.7595,3.761,3.748,3.748,3.7479,3.7604,3.7583,3.7627,3.7607,3.7619,3.7603,3.7611,3.7605,3.7579,3.76,3.7606,3.7686,3.7705,3.7712,3.7729,3.7622,3.7622,3.7622,3.7622,3.7701,3.7726,3.7693,3.7724,3.7702,3.7727,3.7714,3.7696,3.7717,3.7679,3.7694,3.7655,3.7727,3.774,3.7626,3.7625,3.7625,3.7624,3.7624,3.7777,3.7786,3.7783,3.7799,3.7814,3.7792,3.7814,3.7793,3.7773,3.7788,3.7793,3.7792,3.7789,3.7792,3.7792,3.7792,3.7793,3.7793,3.7793,3.7857,3.7853,3.7874,3.7876,3.7882,3.7887,3.7872,3.7877,3.7877,3.786,3.786,3.7834,3.7737,3.7714,3.7797,3.7796,3.7796,3.7796,3.7795,3.7964,3.7937,3.7971,3.7977,3.7978,3.7995,3.7968,3.7981,3.7981,3.7994,3.7964,3.7896,3.7882,3.7873,3.7854,3.7968,3.7968,3.7968,3.7968,3.8029,3.802,3.8051,3.8062,3.807,3.805,3.8089,3.8079,3.8064,3.8064,3.8044,3.8017,3.8009,3.7999,3.7988,3.7969,3.811,3.811,3.811,3.8095,3.8086,3.8123,3.8109,3.8109,3.811,3.8147,3.8162,3.8139,3.8116,3.8064,3.8058,3.8013,3.7999,3.7975,3.7958,3.7924,0,0]}]]